This demonstration page uses our WeatherBlox Daily Observations layout. Learn more.

Left ArrowRight Arrow

Hourly Observations for August 16, 2021

Temp ( °F °C ) Dew Point ( °F °C ) Humidity (%) Winds ( mph kmh ) Pressure ( in mb ) Visibility ( mi km ) Precip ( " mm )
12:53 am 00:53 Cloudy with Haze 85 29.4 63 17.2 48 48 Calm 29.77 1008 8 13 0.00 0.00
1:53 am 01:53 Cloudy with Haze 81 27.2 63 17.2 54 54 Calm 29.77 1008 6 10 0.00 0.00
2:53 am 02:53 Cloudy with Haze 81 27.2 63 17.2 54 54 Calm 29.76 1008 8 13 0.00 0.00
3:53 am 03:53 Cloudy with Haze 78 25.6 63 17.2 60 60 Calm 29.75 1008 7 11 0.00 0.00
4:53 am 04:53 Cloudy with Haze 77 25 63 17.2 62 62 Calm 29.75 1008 7 11 0.00 0.00
5:53 am 05:53 Cloudy with Haze 76 24.4 64 17.8 67 67 Calm 29.75 1008 7 11 0.00 0.00
6:53 am 06:53 Cloudy with Haze 75 23.9 63 17.2 66 66 Calm 29.76 1008 4 6 0.00 0.00
7:42 am 07:42 Cloudy with Haze 76 24.4 64 17.8 67 67 Calm 29.77 1008 2 3 0.00 0.00
7:53 am 07:53 Cloudy with Haze 76 24.4 64 17.8 67 67 WNW 3 6 29.76 1008 2 3 0.00 0.00
8:40 am 08:40 Cloudy with Haze 80 26.7 63 17.2 56 56 Calm 29.76 1008 2 3 0.00 0.00
8:53 am 08:53 Cloudy with Haze 81 27.2 61 16.1 51 51 Calm 29.75 1008 2 3 0.00 0.00
9:53 am 09:53 Cloudy with Haze 86 30 60 15.6 42 42 Calm 29.74 1007 2 3 0.00 0.00
10:53 am 10:53 Cloudy with Haze 87 30.6 63 17.2 45 45 Calm 29.73 1007 3 4 0.00 0.00
11:53 am 11:53 Cloudy with Haze 92 33.3 62 16.7 37 37 Calm 29.70 1006 2 3 0.00 0.00
12:29 pm 12:29 Cloudy with Haze 96 35.6 58 14.4 28 28 W 3 6 29.67 1005 2 3 0.00 0.00
12:53 pm 12:53 Cloudy with Haze 95 35 61 16.1 32 32 S 5 7 29.68 1005 2 2 0.00 0.00
1:53 pm 13:53 Cloudy with Haze 97 36.1 58 14.4 27 27 Calm 29.66 1004 2 3 0.00 0.00
2:30 pm 14:30 Cloudy with Haze 99 37.2 56 13.3 24 24 S 5 7 29.63 1003 2 2 0.00 0.00
2:53 pm 14:53 Cloudy with Haze 99 37.2 56 13.3 24 24 SW 5 7 29.63 1003 2 2 0.00 0.00
3:53 pm 15:53 Cloudy with Haze 99 37.2 55 12.8 23 23 S 6 9 29.61 1003 2 3 0.00 0.00
4:53 pm 16:53 Cloudy with Haze 100 37.8 57 13.9 24 24 NW 5 7 29.60 1002 2 2 0.00 0.00
5:40 pm 17:40 Cloudy with Haze 100 37.8 57 13.9 24 24 WNW 3 6 29.57 1001 1 2 0.00 0.00
5:53 pm 17:53 Cloudy with Haze 100 37.8 56 13.3 23 23 W 3 6 29.59 1002 1 2 0.00 0.00
6:45 pm 18:45 Cloudy with Haze 98 36.7 58 14.4 26 26 Calm 29.56 1001 1 2 0.00 0.00
6:53 pm 18:53 Cloudy with Haze 97 36.1 58 14.4 27 27 NNW 5 7 29.58 1002 1 2 0.00 0.00
7:05 pm 19:05 Cloudy with Haze 96 35.6 58 14.4 28 28 Calm 29.56 1001 1 2 0.00 0.00
7:53 pm 19:53 Cloudy with Haze 96 35.6 49 9.4 20 20 NE 3 6 29.59 1002 1 2 0.00 0.00
8:11 pm 20:11 Cloudy with Haze 95 35 54 12.2 25 25 Calm 29.58 1002 2 3 0.00 0.00
8:26 pm 20:26 Cloudy with Haze 94 34.4 47 8.3 20 20 N 5 7 29.58 1002 1 2 0.00 0.00
8:53 pm 20:53 Cloudy with Haze 92 33.3 46 7.8 21 21 Calm 29.61 1003 1 2 0.00 0.00
9:34 pm 21:34 Cloudy with Haze 88 31.1 55 12.8 33 33 WSW 3 6 29.60 1002 2 2 0.00 0.00
9:53 pm 21:53 Cloudy with Haze 88 31.1 57 13.9 35 35 WSW 5 7 29.62 1003 2 3 0.00 0.00
10:21 pm 22:21 Cloudy with Haze 90 32.2 47 8.3 23 23 NW 5 7 29.61 1003 1 2 0.00 0.00
10:53 pm 22:53 Cloudy with Haze 89 31.7 47 8.3 23 23 NNE 5 7 29.62 1003 1 2 0.00 0.00
11:42 pm 23:42 Cloudy with Haze 85 29.4 53 11.7 33 33 NE 5 7 29.61 1003 2 2 0.00 0.00
11:53 pm 23:53 Cloudy with Haze 85 29.4 54 12.2 35 35 NNW 5 7 29.62 1003 2 2 0.00 0.00

Powered by AerisWeather